| time (UTC) | temp F | wind direction | speed MPH | gust MPH | rain 1hr in | rain 24hr in | rain mn in | humidity % | barometer mb |
| 20260905084604 | 59 | 327 | 0.0 | 1.0 | 0.00 | 0.00 | 0.00 | 100 | 1013.7 |
| 20260905083038 | 59 | 327 | 0.0 | 0.0 | 0.00 | 0.00 | 0.00 | 100 | 1013.7 |
| 20260905081534 | 60 | 327 | 0.0 | 0.0 | 0.00 | 0.00 | 0.00 | 100 | 1013.9 |
| 20260905080038 | 60 | 327 | 0.0 | 0.0 | 0.00 | 0.00 | 0.00 | 100 | 1013.9 |
| 20260905074525 | 61 | 327 | 0.0 | 1.0 | 0.00 | 0.00 | 0.00 | 100 | 1014.1 |
| 20260905073022 | 62 | 327 | 0.0 | 1.0 | 0.00 | 0.00 | 0.00 | 100 | 1013.9 |
| 20260905071516 | 63 | 327 | 0.0 | 2.0 | 0.00 | 0.00 | 0.00 | 100 | 1014.0 |
| 20260905070026 | 64 | 328 | 0.0 | 2.0 | 0.00 | 0.00 | 0.00 | 100 | 1014.1 |
| 20260905064507 | 64 | 327 | 0.0 | 2.0 | 0.00 | 0.00 | 0.00 | 100 | 1014.2 |
| 20260905063002 | 63 | 327 | 0.0 | 1.0 | 0.00 | 0.00 | 0.00 | 100 | 1014.3 |
| 20260905061614 | 63 | 327 | 0.0 | 2.0 | 0.00 | 0.00 | 0.00 | 100 | 1014.4 |
| 20260905060055 | 63 | 325 | 2.0 | 4.0 | 0.00 | 0.00 | 0.00 | 100 | 1014.4 |
| 20260905054557 | 62 | 346 | 1.0 | 3.0 | 0.00 | 0.00 | 0.00 | 100 | 1014.4 |
| 20260905053047 | 62 | 351 | 0.0 | 0.0 | 0.00 | 0.00 | 0.00 | 100 | 1014.3 |
| 20260905051544 | 63 | 351 | 0.0 | 2.0 | 0.00 | 0.00 | 0.00 | 100 | 1014.4 |
| 20260905050044 | 63 | 351 | 0.0 | 2.0 | 0.00 | 0.00 | 0.00 | 100 | 1014.5 |
| 20260905044532 | 64 | 355 | 0.0 | 2.0 | 0.00 | 0.00 | 0.00 | 100 | 1014.5 |
| 20260905043029 | 65 | 355 | 0.0 | 2.0 | 0.00 | 0.00 | 0.00 | 100 | 1014.4 |
| 20260905041523 | 65 | 355 | 0.0 | 2.0 | 0.00 | 0.00 | 0.00 | 100 | 1014.4 |
| 20260905040022 | 65 | 360 | 0.0 | 2.0 | 0.00 | 0.00 | 0.00 | 100 | 1014.5 |
| 20260905034514 | 65 | 360 | 0.0 | 2.0 | 0.00 | 0.00 | 0.00 | 100 | 1014.5 |
| 20260905033018 | 66 | 5 | 0.0 | 1.0 | 0.00 | 0.00 | 0.00 | 100 | 1014.5 |
| 20260905031508 | 66 | 5 | 0.0 | 2.0 | 0.00 | 0.00 | 0.00 | 100 | 1014.5 |
| 20260905030002 | 65 | 10 | 1.0 | 2.0 | 0.00 | 0.00 | 0.00 | 100 | 1014.4 |
| 20260905024600 | 65 | 5 | 0.0 | 2.0 | 0.00 | 0.05 | 0.00 | 100 | 1014.3 |
| 20260905023052 | 65 | 5 | 0.0 | 0.0 | 0.00 | 0.05 | 0.00 | 100 | 1014.5 |
| 20260905021548 | 65 | 9 | 0.0 | 1.0 | 0.00 | 0.05 | 0.00 | 100 | 1014.5 |
| 20260905020046 | 66 | 9 | 0.0 | 0.0 | 0.00 | 0.05 | 0.00 | 100 | 1014.3 |
| 20260905014539 | 67 | 9 | 0.0 | 0.0 | 0.00 | 0.19 | 0.00 | 100 | 1014.3 |
| 20260905013034 | 67 | 9 | 0.0 | 0.0 | 0.00 | 0.19 | 0.00 | 100 | 1014.4 |
| 20260905011533 | 67 | 5 | 0.0 | 0.0 | 0.00 | 0.19 | 0.00 | 100 | 1014.5 |
| 20260905010025 | 67 | 5 | 0.0 | 1.0 | 0.00 | 0.19 | 0.00 | 100 | 1014.6 |
| 20260905004521 | 68 | 5 | 0.0 | 0.0 | 0.00 | 0.19 | 0.00 | 100 | 1014.5 |
| 20260905003017 | 67 | 5 | 0.0 | 0.0 | 0.00 | 0.19 | 0.00 | 100 | 1014.6 |
| 20260905001514 | 68 | 5 | 0.0 | 1.0 | 0.00 | 0.19 | 0.00 | 100 | 1014.4 |
| 20260905000008 | 69 | 19 | 0.0 | 1.0 | 0.00 | 0.19 | 0.00 | 10 | 1014.0 |
| 20260904234507 | 69 | 5 | 0.0 | 1.0 | 0.00 | 0.19 | 0.00 | 23 | 1014.0 |
| 20260904233017 | 69 | 360 | 0.0 | 1.0 | 0.00 | 0.19 | 0.00 | 22 | 1013.9 |
| 20260904231513 | 70 | 360 | 0.0 | 1.0 | 0.00 | 0.19 | 0.00 | 31 | 1013.8 |
| 20260904230009 | 71 | 360 | 0.0 | 2.0 | 0.00 | 0.19 | 0.00 | 34 | 1013.8 |
| 20260904224505 | 71 | 355 | 1.0 | 4.0 | 0.00 | 0.19 | 0.00 | 49 | 1013.6 |
| 20260904223100 | 71 | 33 | 2.0 | 6.0 | 0.00 | 0.19 | 0.00 | 50 | 1013.5 |
| 20260904221556 | 72 | 348 | 2.0 | 5.0 | 0.00 | 0.19 | 0.00 | 45 | 1013.4 |
| 20260904220052 | 72 | 30 | 1.0 | 4.0 | 0.00 | 0.19 | 0.00 | 37 | 1013.3 |
| 20260904214553 | 73 | 14 | 1.0 | 6.0 | 0.00 | 0.19 | 0.00 | 41 | 1013.2 |
| 20260904213043 | 74 | 335 | 3.0 | 6.0 | 0.00 | 0.19 | 0.00 | 49 | 1013.4 |
| 20260904211539 | 74 | 30 | 3.0 | 9.0 | 0.00 | 0.19 | 0.00 | 55 | 1013.4 |
| 20260904210035 | 75 | 288 | 3.0 | 5.0 | 0.00 | 0.19 | 0.00 | 50 | 1013.5 |
| 20260904204530 | 74 | 317 | 2.0 | 9.0 | 0.00 | 0.19 | 0.00 | 51 | 1013.5 |
| 20260904203033 | 76 | 331 | 4.0 | 11.0 | 0.00 | 0.19 | 0.00 | 56 | 1013.5 |
| 20260904201521 | 76 | 316 | 4.0 | 10.0 | 0.00 | 0.19 | 0.00 | 51 | 1013.6 |
| 20260904200017 | 76 | 349 | 4.0 | 9.0 | 0.00 | 0.19 | 0.00 | 56 | 1013.9 |
| 20260904194512 | 76 | 46 | 4.0 | 11.0 | 0.00 | 0.19 | 0.00 | 53 | 1014.0 |
| 20260904193009 | 75 | 24 | 2.0 | 10.0 | 0.00 | 0.19 | 0.00 | 51 | 1014.3 |
| 20260904191503 | 76 | 304 | 4.0 | 12.0 | 0.00 | 0.19 | 0.00 | 58 | 1014.2 |
| 20260904190059 | 76 | 307 | 6.0 | 10.0 | 0.00 | 0.19 | 0.00 | 57 | 1014.4 |
| 20260904184559 | 76 | 324 | 3.0 | 10.0 | 0.00 | 0.19 | 0.00 | 55 | 1014.5 |
| 20260904183050 | 75 | 305 | 6.0 | 10.0 | 0.00 | 0.19 | 0.00 | 55 | 1014.6 |
| 20260904181547 | 74 | 319 | 7.0 | 12.0 | 0.00 | 0.19 | 0.00 | 54 | 1014.8 |
| 20260904180041 | 76 | 289 | 5.0 | 10.0 | 0.00 | 0.19 | 0.00 | 53 | 1014.7 |
| 20260904174537 | 75 | 309 | 6.0 | 12.0 | 0.00 | 0.19 | 0.00 | 54 | 1015.0 |
| 20260904173034 | 74 | 289 | 4.0 | 10.0 | 0.00 | 0.19 | 0.00 | 52 | 1015.1 |
| 20260904171533 | 74 | 323 | 5.0 | 12.0 | 0.00 | 0.19 | 0.00 | 57 | 1015.4 |
| 20260904170023 | 74 | 319 | 5.0 | 9.0 | 0.00 | 0.19 | 0.00 | 45 | 1015.5 |
| 20260904164518 | 74 | 331 | 4.0 | 8.0 | 0.00 | 0.19 | 0.00 | 41 | 1015.4 |
| 20260904163013 | 74 | 323 | 1.0 | 9.0 | 0.00 | 0.19 | 0.00 | 40 | 1015.4 |
| 20260904161509 | 74 | 5 | 3.0 | 8.0 | 0.00 | 0.19 | 0.00 | 41 | 1015.5 |
| 20260904160009 | 74 | 269 | 4.0 | 8.0 | 0.00 | 0.19 | 0.00 | 31 | 1015.5 |
| 20260904154601 | 74 | 355 | 4.0 | 9.0 | 0.00 | 0.19 | 0.00 | 26 | 1015.6 |
| 20260904153058 | 73 | 259 | 3.0 | 8.0 | 0.00 | 0.19 | 0.00 | 24 | 1015.4 |
| 20260904151551 | 72 | 14 | 3.0 | 9.0 | 0.00 | 0.19 | 0.00 | 21 | 1015.5 |
| 20260904150048 | 72 | 295 | 2.0 | 6.0 | 0.00 | 0.19 | 0.00 | 14 | 1015.4 |
| 20260904144542 | 72 | 290 | 4.0 | 9.0 | 0.00 | 0.19 | 0.00 | 10 | 1015.2 |
| 20260904143038 | 71 | 300 | 4.0 | 8.0 | 0.00 | 0.19 | 0.00 | 6 | 1015.5 |
| 20260904141534 | 71 | 304 | 3.0 | 7.0 | 0.00 | 0.19 | 0.00 | 100 | 1015.4 |
| 20260904140035 | 70 | 12 | 3.0 | 9.0 | 0.00 | 0.19 | 0.00 | 100 | 1015.7 |
| 20260904134525 | 70 | 294 | 4.0 | 8.0 | 0.00 | 0.19 | 0.00 | 100 | 1015.6 |
| 20260904133022 | 69 | 317 | 4.0 | 8.0 | 0.00 | 0.19 | 0.00 | 100 | 1015.7 |
| 20260904131516 | 69 | 340 | 4.0 | 9.0 | 0.00 | 0.19 | 0.00 | 100 | 1015.8 |
| 20260904130029 | 68 | 288 | 2.0 | 9.0 | 0.00 | 0.19 | 0.00 | 100 | 1015.7 |
| 20260904124508 | 68 | 296 | 3.0 | 8.0 | 0.00 | 0.20 | 0.00 | 100 | 1015.7 |
| 20260904123003 | 67 | 273 | 4.0 | 10.0 | 0.00 | 0.20 | 0.00 | 100 | 1015.4 |
| 20260904121559 | 67 | 288 | 3.0 | 11.0 | 0.00 | 0.20 | 0.00 | 100 | 1015.6 |
| 20260904120057 | 66 | 309 | 3.0 | 7.0 | 0.00 | 0.20 | 0.00 | 100 | 1015.6 |
| 20260904114550 | 65 | 286 | 2.0 | 5.0 | 0.00 | 0.20 | 0.00 | 100 | 1015.5 |
| 20260904113045 | 65 | 339 | 2.0 | 5.0 | 0.00 | 0.20 | 0.00 | 100 | 1015.4 |
| 20260904111542 | 64 | 260 | 0.0 | 4.0 | 0.00 | 0.20 | 0.00 | 100 | 1015.4 |
| 20260904110039 | 64 | 269 | 0.0 | 1.0 | 0.00 | 0.20 | 0.00 | 100 | 1015.2 |
| 20260904104535 | 64 | 302 | 0.0 | 3.0 | 0.00 | 0.20 | 0.00 | 100 | 1015.2 |
| 20260904103028 | 64 | 250 | 0.0 | 2.0 | 0.00 | 0.20 | 0.00 | 100 | 1014.9 |
| 20260904101523 | 65 | 281 | 1.0 | 5.0 | 0.00 | 0.20 | 0.00 | 100 | 1014.9 |
| 20260904100018 | 65 | 259 | 2.0 | 5.0 | 0.00 | 0.20 | 0.00 | 100 | 1014.9 |
| 20260904094514 | 65 | 267 | 2.0 | 4.0 | 0.00 | 0.20 | 0.00 | 100 | 1014.8 |
| 20260904093010 | 65 | 250 | 1.0 | 4.0 | 0.00 | 0.20 | 0.00 | 100 | 1014.8 |
| 20260904091505 | 65 | 294 | 1.0 | 4.0 | 0.00 | 0.20 | 0.00 | 100 | 1014.7 |
| 20260904090004 | 65 | 250 | 1.0 | 3.0 | 0.00 | 0.20 | 0.00 | 100 | 1014.6 |